User: anonymous   Login
Location: Newark
(23.3970°S, 47.6010°W)
Time: 19:57:16
(UTC+00:00)
Language:

deb Explorer IX - Orbit

View from above orbital plane
View from above orbital plane
View from above satellite
View from above satellite

Ground track
Ground track

The orbit data is extracted from the following two-line orbital elements,

1    85U 61004C   20047.03977812 +.00000261 +00000-0 +81368-4 0  9993
2    85 038.7675 285.2804 0381718 044.4528 318.6198 14.20330235913681
Epoch (UTC): 16 February 2020 00:57:16
Eccentricity: 0.0381718
inclination: 38.7675°
perigee height: 549 km
apogee height: 1099 km
right ascension of ascending node: 285.2804°
argument of perigee: 44.4528°
revolutions per day: 14.20330235
mean anomaly at epoch: 318.6198°
orbit number at epoch: 91368

The dashed part of the orbit path shows where the satellite is in the earth's shadow,  

DLR